Tracking 18844 objects as of 21-Nov-2017
HD Live streaming from Space Station
objects crossing your sky now

FENGYUN 1C DEB

Track FENGYUN 1C DEB now!
10-day predictions


NORAD ID: 30764
Int'l Code: 1999-025AUA
Perigee: 511.1 km
Apogee: 774.1 km
Inclination: 98.8 °
Period: 97.4 minutes
Semi major axis: 7013 km
RCS: 0.0061 m2 (small)
Launch date: May 10, 1999
Source: People's Republic of China (PRC)
Launch site: Taiyaun Space Center, China (TSC)

Note: This is SATELLITE DEBRIS
aabbcc
Your satellite tracking list
Your tracking list is empty




NASA's NSSDC Master Catalog

Two Line Element Set (TLE):
1 30764U 99025AUA 17324.49192154 +.00001126 +00000-0 +12456-3 0  9998
2 30764 098.8082 301.2036 0187479 241.0212 246.5021 14.78047732574728
Source of the keplerian elements: AFSPC